Date String (YYYY-MM-DD hh:mm:ss) UTC,Instrument flags,Ambient pressure (hPa),Sample flow (lpm),Bypass flow (lpm),Sample temperature (°C),Ambient temperature (°C),ASC tube jacket temperature (°C),LED temperature (°C),Box temperature (°C),Sample RH (%),Span deviation,Mass concentration (μg/m³),Mass concentration (μg/m³),Mass concentration (μg/m³)
DateTimeUTC,F1_M11,P_M11,Q1_M11,Q2_M11,T1_M11,T2_M11,T3_M11,T4_M11,T5_M11,U1_M11,ZSPAN_M11,X0_M11,X2_M11,X1_M11
2022-08-19 11:00:00,,0827.4,5.01,0.00,29.9,28.9,00.0,38.7,31.8,20.6,0000.0,0011.99,0006.32,0005.62
2022-08-19 11:01:00,,0827.4,4.99,0.00,30.0,28.9,00.0,38.7,31.8,20.6,0000.0,0011.75,0006.32,0005.62
2022-08-19 11:02:00,,0827.4,5.00,0.00,30.0,28.9,00.0,38.7,31.9,20.6,0000.0,0011.14,0006.33,0005.63
2022-08-19 11:03:00,,0827.4,5.00,0.00,30.0,28.9,00.0,38.7,31.9,20.5,0000.0,0011.20,0006.35,0005.65
2022-08-19 11:04:00,,0827.4,5.00,0.00,30.0,28.9,00.0,38.7,31.9,20.5,0000.0,0011.47,0006.32,0005.66
2022-08-19 11:05:00,,0827.4,5.00,0.00,30.0,28.9,00.0,38.7,31.9,20.5,0000.0,0012.68,0006.37,0005.66
2022-08-19 11:06:00,,0827.4,5.00,0.00,30.0,28.9,00.0,38.7,31.9,20.5,0000.0,0012.43,0006.36,0005.67
2022-08-19 11:07:00,,0827.4,5.01,0.00,30.0,29.0,00.0,38.8,31.9,20.5,0000.0,0012.26,0006.34,0005.66
2022-08-19 11:08:00,,0827.4,4.99,0.00,30.1,29.0,00.0,38.8,31.9,20.5,0000.0,0012.23,0006.31,0005.67
2022-08-19 11:09:00,,0827.4,5.00,0.00,30.1,29.0,00.0,38.8,32.0,20.5,0000.0,0012.32,0006.31,0005.68
2022-08-19 11:10:00,,0827.4,5.00,0.00,30.1,29.0,00.0,38.8,32.0,20.4,0000.0,0012.55,0006.35,0005.69
2022-08-19 11:11:00,,0827.4,5.00,0.00,30.1,29.0,00.0,38.8,32.0,20.5,0000.0,0013.27,0006.35,0005.69
2022-08-19 11:12:00,,0827.4,5.00,0.00,30.1,29.0,00.0,38.8,32.0,20.4,0000.0,0013.93,0006.39,0005.70
2022-08-19 11:13:00,,0827.4,5.01,0.00,30.1,29.1,00.0,38.8,32.0,20.4,0000.0,0013.97,0006.40,0005.71
2022-08-19 11:14:00,,0827.5,5.00,0.00,30.1,29.1,00.0,38.8,32.0,20.4,0000.0,0014.48,0006.42,0005.72
2022-08-19 11:15:00,,0827.4,4.99,0.00,30.1,29.1,00.0,38.9,32.0,20.4,0000.0,0014.84,0006.45,0005.73
2022-08-19 11:16:00,,0827.4,5.00,0.00,30.1,29.1,00.0,38.9,32.0,20.4,0000.0,0013.64,0006.43,0005.74
2022-08-19 11:17:00,,0827.4,5.01,0.00,30.2,29.1,00.0,38.9,32.0,20.3,0000.0,0012.83,0006.49,0005.76
2022-08-19 11:18:00,,0827.4,5.00,0.00,30.2,29.1,00.0,38.9,32.0,20.2,0000.0,0012.76,0006.49,0005.78
2022-08-19 11:19:00,,0827.4,5.00,0.00,30.2,29.1,00.0,38.9,32.1,20.3,0000.0,0012.83,0006.52,0005.79
2022-08-19 11:20:00,,0827.4,5.00,0.00,30.2,29.1,00.0,38.9,32.1,20.2,0000.0,0013.11,0006.55,0005.80
2022-08-19 11:21:00,,0827.4,5.01,0.00,30.2,29.1,00.0,38.9,32.1,20.2,0000.0,0013.16,0006.57,0005.81
2022-08-19 11:22:00,,0827.5,4.99,0.00,30.2,29.1,00.0,38.9,32.1,20.3,0000.0,0012.57,0006.59,0005.81
2022-08-19 11:23:00,,0827.5,5.00,0.00,30.2,29.2,00.0,38.9,32.1,20.3,0000.0,0011.81,0006.57,0005.82
2022-08-19 11:24:00,,0827.5,5.00,0.00,30.2,29.2,00.0,39.0,32.1,20.3,0000.0,0012.32,0006.56,0005.80
2022-08-19 11:25:00,,0827.5,5.01,0.00,30.3,29.1,00.0,39.0,32.1,20.3,0000.0,0013.04,0006.55,0005.80
2022-08-19 11:26:00,,0827.6,4.99,0.00,30.2,28.3,00.0,38.9,31.9,20.3,0000.0,0012.67,0006.55,0005.78
2022-08-19 11:27:00,,0827.5,5.01,0.00,30.1,27.7,00.0,38.9,31.7,20.3,0000.0,0012.41,0006.58,0005.78
2022-08-19 11:28:00,,0827.5,5.00,0.00,30.0,27.6,00.0,38.8,31.6,20.5,0000.0,0013.06,0006.52,0005.77
2022-08-19 11:29:00,,0827.5,4.99,0.00,29.9,27.6,00.0,38.8,31.5,20.6,0000.0,0013.24,0006.55,0005.76
2022-08-19 11:30:00,,0827.5,5.00,0.00,29.9,27.7,00.0,38.8,31.5,20.7,0000.0,0013.19,0006.51,0005.74
2022-08-19 11:31:00,,0827.5,5.00,0.00,29.8,27.8,00.0,38.7,31.5,20.7,0000.0,0013.18,0006.51,0005.73
2022-08-19 11:32:00,,0827.5,5.00,0.00,29.8,27.9,00.0,38.7,31.6,20.7,0000.0,0013.14,0006.47,0005.71
2022-08-19 11:33:00,,0827.5,5.00,0.00,29.8,28.0,00.0,38.7,31.6,20.7,0000.0,0013.21,0006.49,0005.71
2022-08-19 11:34:00,,0827.5,5.01,0.00,29.8,28.2,00.0,38.7,31.6,20.7,0000.0,0013.80,0006.53,0005.72
2022-08-19 11:35:00,,0827.6,5.00,0.00,29.8,28.3,00.0,38.7,31.6,21.9,0000.0,0013.43,0006.55,0005.72
2022-08-19 11:36:00,,0827.6,4.99,0.00,29.8,28.4,00.0,38.7,31.6,22.2,0000.0,0012.31,0006.54,0005.71
2022-08-19 11:37:00,,0827.7,5.00,0.00,29.8,28.4,00.0,38.7,31.7,21.8,0000.0,0012.20,0006.53,0005.71
2022-08-19 11:38:00,,0827.7,5.00,0.00,29.8,28.5,00.0,38.7,31.7,21.5,0000.0,0012.22,0006.51,0005.69
2022-08-19 11:39:00,,0827.7,5.00,0.00,29.8,28.6,00.0,38.7,31.7,21.4,0000.0,0011.56,0006.51,0005.68
2022-08-19 11:40:00,,0827.7,5.00,0.00,29.9,28.6,00.0,38.7,31.8,21.3,0000.0,0011.90,0006.48,0005.68
2022-08-19 11:41:00,,0827.7,5.00,0.00,29.9,28.7,00.0,38.7,31.7,21.2,0000.0,0011.93,0006.49,0005.69
2022-08-19 11:42:00,,0827.6,5.01,0.00,29.9,28.7,00.0,38.7,31.7,21.2,0000.0,0011.72,0006.48,0005.70
2022-08-19 11:43:00,,0827.6,5.00,0.00,29.9,28.8,00.0,38.7,31.8,21.3,0000.0,0011.54,0006.50,0005.70
2022-08-19 11:44:00,,0827.6,5.01,0.00,29.9,28.8,00.0,38.7,31.8,21.5,0000.0,0011.39,0006.46,0005.69
2022-08-19 11:45:00,,0827.6,5.00,0.00,29.9,28.9,00.0,38.7,31.9,21.8,0000.0,0011.13,0006.41,0005.70
2022-08-19 11:46:00,,0827.6,5.00,0.00,30.0,28.9,00.0,38.7,31.9,22.1,0000.0,0011.94,0006.43,0005.71
2022-08-19 11:47:00,,0827.6,5.00,0.00,30.0,28.9,00.0,38.7,31.9,21.8,0000.0,0012.33,0006.44,0005.71
2022-08-19 11:48:00,,0827.6,5.00,0.00,30.0,29.0,00.0,38.7,31.9,21.5,0000.0,0012.23,0006.40,0005.71
2022-08-19 11:49:00,,0827.6,4.99,0.00,30.0,29.0,00.0,38.7,31.9,21.5,0000.0,0012.30,0006.41,0005.72
2022-08-19 11:50:00,,0827.6,5.01,0.00,30.0,29.0,00.0,38.8,31.9,21.5,0000.0,0012.58,0006.49,0005.73
2022-08-19 11:51:00,,0827.7,5.00,0.00,30.1,29.1,00.0,38.8,32.0,21.3,0000.0,0012.87,0006.52,0005.75
2022-08-19 11:52:00,,0827.7,5.00,0.00,30.1,29.1,00.0,38.8,32.0,21.2,0000.0,0012.83,0006.51,0005.75
2022-08-19 11:53:00,,0827.7,5.00,0.00,30.1,29.1,00.0,38.8,32.0,21.3,0000.0,0012.82,0006.51,0005.74
2022-08-19 11:54:00,,0827.7,4.99,0.00,30.1,29.1,00.0,38.8,32.0,21.2,0000.0,0012.81,0006.48,0005.74
2022-08-19 11:55:00,,0827.7,5.00,0.00,30.1,29.2,00.0,38.8,32.0,21.1,0000.0,0012.91,0006.47,0005.73
2022-08-19 11:56:00,,0827.7,5.01,0.00,30.2,29.2,00.0,38.9,32.1,21.0,0000.0,0012.50,0006.44,0005.71
2022-08-19 11:57:00,,0827.7,5.01,0.00,30.2,29.2,00.0,38.9,32.1,20.9,0000.0,0011.97,0006.41,0005.70
2022-08-19 11:58:00,,0827.7,5.00,0.00,30.2,29.2,00.0,38.9,32.1,20.9,0000.1,0011.33,0006.41,0005.69
2022-08-19 11:59:00,,0827.7,5.00,0.00,30.2,29.2,00.0,38.9,32.1,20.9,0000.7,0011.28,0006.41,0005.70
